ROMMA est une association bénévole à but non lucratif. Votre soutien est indispensable : ADHERER à ROMMA ou FAIRE un DON

Crêts du Salève - (74, Haute-Savoie)

Salève (1270 m)   Longitude: 6° 10' 28'' E   Latitude: 46° 7' 42'' N Station romma n°73
 

Détail journalier du     <<     >>

Température Precipitation Humidité Vent Dir Rafale Dir. rafale Ensol.
Heure (°C) (mm) (%) (km/h) (km/h) (min)
01:00 10.808633SO48SSO0
02:00 12.107819SSO35SSO0
03:00 11.808012S26SSO0
04:00 11.807916SSO35S0
05:00 12.207620SSO37SSO0
06:00 12.107523S44S0
07:00 12.207522S32S0
08:00 12.607119S27S30
09:00 12.806813SSO27SSO60
10:00 12.506721SSO39SSO60
11:00 13.306421SSO39SSO60
12:00 13.106821SSO37SSO60
13:00 13.606423SO45SSO60
14:00 13.606227SSO52SO40
15:00 13.306329SO42SSO30
16:00 13.206328SO37SO0
17:00 13.006630SO39SO0
18:00 12.706925SO35SSO0
19:00 12.607024SSO40SSO0
20:00 12.606831SO42SO0
21:00 12.606523SSO35SSO0
22:00 12.306827SSO42SSO0
23:00 12.206624SO35SSO0
minuit 11.40.26824SO39SSO0

Graphique du 27-10-2019

 

Serveur OMMA